Tracking 28790 objects as of 19-Apr-2024
HD Live streaming from Space Station
objects crossing your sky now

CRRES DEB (CANISTER)

Track CRRES DEB (CANISTER) now!


NORAD ID: 21636
Int'l Code: 1990-065N
Perigee: 462.5 km
Apogee: 34,689.1 km
Inclination: 17.6 °
Period: 614.7 minutes
Semi major axis: 23946 km
RCS: 0.0764 m2 (small)
Launch date: July 25, 1990
Source: United States (US)
Launch site: AIR FORCE EASTERN TEST RANGE (AFETR)

Note: This is SATELLITE DEBRIS
Your satellite tracking list
Your tracking list is empty




NASA's NSSDC Master Catalog

Two Line Element Set (TLE):
1 21636U 90065N   24106.64234381  .00000257  00000-0  21938-2 0  9991
2 21636  17.6472 272.3222 7146379  98.5208 341.0393  2.34278169102420
Source of the keplerian elements: AFSPC